Project,Study,Ord_Occ,Event_Num,Cast_ID,Date_Time_UTC,Date_Time_PST,Lat_Dec,Lon_Dec,Sta_ID,Line,Sta,Depth,Pressure,PrQ,Temp1,Temp1Q,Temp2,Temp2Q,TempAve,Salt1,Salt1Q,Salt1_Corr,Salt2,Salt2Q,Salt2_Corr,SaltAve_Corr,Ox1,Ox1Q,Ox1_CruiseCorr,Ox1_StaCorr,Ox2,Ox2Q,Ox2_CruiseCorr,Ox2_StaCorr,OxAve_StaCorr,Ox1uM,Ox1uM_CruiseCorr,Ox1uM_StaCorr,Ox2uM,Ox2uM_CruiseCorr,Ox2uM_StaCorr,OxAveuM_StaCorr,FluorV,FluorQ,EstChl_CruiseCorr,EstChl_StaCorr,ISUSV,ISUSQ,EstNO3_CruiseCorr,EstNO3_StaCorr,SigThetaTS1,SigThetaTS1Q,SigThetaTS2,SigThetaTS2Q,BAT,XMiss,TransQ,pH,pHQ,SPAR,SPARQ,PAR,PARQ,PoT1,PoT2,DynHt,SVA,OxSat1,OxSat2,BTL_Depth,BTL_Temp,SaltB,OxB,OxBuM,Chl-a,Phaeo,NO3,NO2,NH4,PO4,SIL
CalCOFI,2105SH,029,,2105_029d,10-May-2021 06:06:29,09-May-2021 22:06:29,33.31844,-119.66464,086.7 050.0,086.7,050.0,3.000,3.021,,14.7041,,14.7063,,14.7052,33.7598,,33.7610,33.7599,,33.7618,33.7614,5.9525,,6.2912,,6.0293,,6.3045,,,259.335,273.6076,273.7934,262.679,285.2110,274.0940,273.9437,0.7519,,4.1733,3.8974,2.7193,,1.7541,,25.0799,,25.0795,,,,,,,,,,,14.7037,14.7058,0.0018,287.255,103.162,104.496,3,14.711,33.7644,6.285,273.82,3.914,0.750,1.68,0.057,0.00,0.31,1.21
CalCOFI,2105SH,029,,2105_029d,10-May-2021 06:06:37,09-May-2021 22:06:37,33.31839,-119.66466,086.7 050.0,086.7,050.0,4.000,4.029,,14.7066,,14.7045,,14.7056,33.7605,,33.7617,33.7605,,33.7624,33.7621,5.9611,,6.3002,,6.0337,,6.3091,,,259.708,273.9975,274.1759,262.873,285.6139,274.2925,274.2342,0.7752,,4.2663,4.0135,2.7201,,1.7541,,25.0799,,25.0804,,,,,,,,,,,14.7060,14.7039,0.0056,287.287,103.315,104.570,,,,,,,,,,,,
CalCOFI,2105SH,029,,2105_029d,10-May-2021 06:06:38,09-May-2021 22:06:38,33.31837,-119.66466,086.7 050.0,086.7,050.0,5.000,5.036,,14.7081,,14.7086,,14.7084,33.7605,,33.7617,33.7604,,33.7623,33.7620,5.9383,,6.2764,,6.0342,,6.3096,,,258.716,272.9605,273.1586,262.892,284.5425,274.3120,273.7353,0.7926,,4.3341,4.1002,2.7203,,1.7541,,25.0797,,25.0795,,,,,,,,,,,14.7073,14.7079,0.0084,287.340,102.924,104.586,,,,,,,,,,,,
CalCOFI,2105SH,029,,2105_029d,10-May-2021 06:06:40,09-May-2021 22:06:40,33.31836,-119.66466,086.7 050.0,086.7,050.0,6.000,6.043,,14.7089,,14.7104,,14.7097,33.7606,,33.7618,33.7603,,33.7622,33.7620,5.9475,,6.2860,,6.0386,,6.3142,,,259.116,273.3787,273.5688,263.087,284.9745,274.5115,274.0402,0.7802,,4.2860,4.0384,2.7205,,1.7541,,25.0796,,25.0791,,,,,,,,,,,14.7080,14.7095,0.0113,287.376,103.085,104.667,,,,,,,,,,,,
CalCOFI,2105SH,029,,2105_029d,10-May-2021 06:06:42,09-May-2021 22:06:42,33.31836,-119.66466,086.7 050.0,086.7,050.0,7.000,7.050,,14.7041,,14.7044,,14.7043,33.7608,,33.7620,33.7603,,33.7622,33.7621,5.9413,,6.2795,,6.0376,,6.3131,,,258.847,273.0975,273.2930,263.043,284.6840,274.4665,273.8798,0.7931,,4.3360,4.1027,2.7204,,1.7541,,25.0808,,25.0804,,,,,,,,,,,14.7031,14.7034,0.0142,287.295,102.968,104.638,,,,,,,,,,,,
CalCOFI,2105SH,029,,2105_029d,10-May-2021 06:06:45,09-May-2021 22:06:45,33.31834,-119.66468,086.7 050.0,086.7,050.0,8.000,8.057,,14.7044,,14.7060,,14.7052,33.7607,,33.7619,33.7604,,33.7623,33.7621,5.9484,,6.2869,,6.0282,,6.3034,,,259.156,273.4205,273.6098,262.635,285.0177,274.0489,273.8294,0.7587,,4.2007,3.9313,2.7195,,1.7541,,25.0807,,25.0801,,,,,,,,,,,14.7032,14.7049,0.0171,287.336,103.092,104.479,,,,,,,,,,,,
CalCOFI,2105SH,029,,2105_029d,10-May-2021 06:06:47,09-May-2021 22:06:47,33.31834,-119.66468,086.7 050.0,086.7,050.0,9.000,9.064,,14.7035,,14.7032,,14.7034,33.7609,,33.7621,33.7601,,33.7620,33.7621,5.9096,,6.2464,,6.0106,,6.2852,,,257.466,271.6538,271.8768,261.867,283.1925,273.2629,272.5699,0.7611,,4.2103,3.9433,2.7169,,1.7541,,25.0811,,25.0806,,,,,,,,,,,14.7022,14.7018,0.0200,287.330,102.417,104.167,,,,,,,,,,,,
CalCOFI,2105SH,029,,2105_029d,10-May-2021 06:06:49,09-May-2021 22:06:49,33.31832,-119.66469,086.7 050.0,086.7,050.0,10.000,10.072,,14.6657,,14.6642,,14.6650,33.7621,,33.7633,33.7602,,33.7621,33.7627,5.9236,,6.2610,,5.9828,,6.2564,,,258.074,272.2894,272.5003,260.652,283.8491,272.0195,272.2599,0.7594,,4.2035,3.9348,2.7092,,1.7541,,25.0901,,25.0890,,,,,,,,,,,14.6642,14.6627,0.0229,286.495,102.583,103.604,10,14.699,,,272.34,3.900,0.929,2.57,0.061,0.06,0.39,2.12
CalCOFI,2105SH,029,,2105_029d,10-May-2021 06:06:51,09-May-2021 22:06:51,33.31831,-119.66470,086.7 050.0,086.7,050.0,11.000,11.079,,14.6402,,14.6318,,14.6360,33.7609,,33.7621,33.7610,,33.7629,33.7625,5.8057,,6.1377,,5.8058,,6.0730,,,252.934,266.9160,267.2294,252.938,278.2979,264.1250,265.6772,0.7065,,3.9845,3.6712,2.6928,,1.7541,,25.0947,,25.0966,,,,,,,,,,,14.6385,14.6301,0.0258,286.088,100.488,100.473,,,,,,,,,,,,
CalCOFI,2105SH,029,,2105_029d,10-May-2021 06:06:53,09-May-2021 22:06:53,33.31830,-119.66470,086.7 050.0,086.7,050.0,12.000,12.086,,14.5615,,14.5610,,14.5613,33.7667,,33.7679,33.7605,,33.7624,33.7652,5.6394,,5.9638,,5.6670,,5.9293,,,245.684,259.3369,259.7948,246.890,270.4679,257.9355,258.8652,0.7500,,4.1656,3.8879,2.6796,,1.7541,,25.1161,,25.1114,,,,,,,,,,,14.5597,14.5593,0.0286,284.085,97.460,97.933,,,,,,,,,,,,
CalCOFI,2105SH,029,,2105_029d,10-May-2021 06:06:54,09-May-2021 22:06:54,33.31829,-119.66470,086.7 050.0,086.7,050.0,13.000,13.093,,14.3279,,14.3238,,14.3259,33.7762,,33.7774,33.7600,,33.7619,33.7697,5.5749,,5.8963,,5.6205,,5.8811,,,242.860,256.3846,256.8989,244.849,267.4180,255.8468,256.3729,0.7918,,4.3310,4.0962,2.6657,,1.7541,,25.1730,,25.1613,,,,,,,,,,,14.3261,14.3219,0.0315,278.694,95.899,96.666,,,,,,,,,,,,
CalCOFI,2105SH,029,,2105_029d,10-May-2021 06:06:55,09-May-2021 22:06:55,33.31828,-119.66471,086.7 050.0,086.7,050.0,14.000,14.100,,14.1508,,14.1506,,14.1507,33.7783,,33.7795,33.7681,,33.7700,33.7748,5.5053,,5.8235,,5.5722,,5.8311,,,239.819,253.2056,253.7805,242.737,264.1337,253.6854,253.7330,0.6937,,3.9295,3.6075,2.6443,,1.7541,,25.2119,,25.2041,,,,,,,,,,,14.1488,14.1486,0.0343,275.015,94.366,95.506,,,,,,,,,,,,
CalCOFI,2105SH,029,,2105_029d,10-May-2021 06:06:59,09-May-2021 22:06:59,33.31827,-119.66472,086.7 050.0,086.7,050.0,15.000,15.107,,13.9284,,13.9297,,13.9291,33.7836,,33.7848,33.7746,,33.7765,33.7807,5.3235,,5.6334,,5.3330,,5.5833,,,231.890,244.9166,245.6496,232.307,255.5703,243.0113,244.3305,0.5840,,3.4259,3.0609,2.5704,,1.7541,,25.2624,,25.2552,,,,,,,,,,,13.9262,13.9276,0.0370,270.236,90.845,91.006,,,,,,,,,,,,
CalCOFI,2105SH,029,,2105_029d,10-May-2021 06:07:02,09-May-2021 22:07:02,33.31825,-119.66474,086.7 050.0,086.7,050.0,16.000,16.115,,13.6344,,13.6247,,13.6296,33.7975,,33.7987,33.7821,,33.7840,33.7914,4.9543,,5.2473,,4.9530,,5.1897,,,215.793,228.0888,229.1427,215.738,238.1855,226.0547,227.5987,0.5387,,3.2012,2.8353,2.4933,,1.7541,,25.3339,,25.3239,,,,,,,,,,,13.6321,13.6224,0.0397,263.462,84.045,83.997,,,,,,,,,,,,
CalCOFI,2105SH,029,,2105_029d,10-May-2021 06:07:03,09-May-2021 22:07:03,33.31824,-119.66474,086.7 050.0,086.7,050.0,17.000,17.122,,13.3995,,13.3963,,13.3979,33.8074,,33.8086,33.7868,,33.7887,33.7987,4.8452,,5.1332,,4.8627,,5.0962,,,211.028,223.1075,224.2564,211.796,233.0393,222.0204,223.1384,0.5151,,3.0802,2.7177,2.4642,,1.7541,,25.3893,,25.3740,,,,,,,,,,,13.3972,13.3939,0.0423,258.206,81.806,82.086,,,,,,,,,,,,
CalCOFI,2105SH,029,,2105_029d,10-May-2021 06:07:04,09-May-2021 22:07:04,33.31823,-119.66475,086.7 050.0,086.7,050.0,18.000,18.129,,13.2186,,13.2096,,13.2141,33.8127,,33.8139,33.7914,,33.7933,33.8036,4.7695,,5.0540,,4.8072,,5.0387,,,207.725,219.6545,220.8693,209.369,229.4721,219.5367,220.2030,0.4981,,2.9913,2.6330,2.4358,,1.7541,,25.4300,,25.4153,,,,,,,,,,,13.2161,13.2071,0.0449,254.367,80.233,80.841,,,,,,,,,,,,
CalCOFI,2105SH,029,,2105_029d,10-May-2021 06:07:05,09-May-2021 22:07:05,33.31822,-119.66476,086.7 050.0,086.7,050.0,19.000,19.136,,13.0038,,12.9991,,13.0015,33.8206,,33.8218,33.7976,,33.7995,33.8107,4.7200,,5.0023,,4.7988,,5.0300,,,205.557,217.3881,218.6461,208.992,227.1306,219.1508,218.8985,0.4979,,2.9903,2.6320,2.4067,,1.7541,,25.4789,,25.4621,,,,,,,,,,,13.0012,12.9966,0.0474,249.730,79.053,80.353,,,,,,,,,,,,
CalCOFI,2105SH,029,,2105_029d,10-May-2021 06:07:08,09-May-2021 22:07:08,33.31821,-119.66478,086.7 050.0,086.7,050.0,20.000,20.144,,12.8041,,12.7981,,12.8011,33.8195,,33.8207,33.8093,,33.8112,33.8160,4.6643,,4.9440,,4.7211,,4.9495,,,203.124,214.8446,216.1512,205.598,224.5030,215.6774,215.9143,0.4238,,2.5869,2.2628,2.3069,,1.7541,,25.5177,,25.5109,,,,,,,,,,,12.8014,12.7954,0.0505,246.067,77.798,78.731,,,,,,,,,,,,
CalCOFI,2105SH,029,,2105_029d,10-May-2021 06:07:12,09-May-2021 22:07:12,33.31819,-119.66478,086.7 050.0,086.7,050.0,21.000,21.151,,12.6363,,12.6326,,12.6345,33.8314,,33.8326,33.8145,,33.8164,33.8245,4.2792,,4.5413,,4.2000,,4.4098,,,186.348,197.3070,198.9480,182.900,206.3849,192.4483,195.6982,0.4078,,2.4963,2.1831,2.1943,,1.7541,,25.5598,,25.5474,,,,,,,,,,,12.6335,12.6298,0.0537,242.087,71.134,69.804,,,,,,,,,,,,
CalCOFI,2105SH,029,,2105_029d,10-May-2021 06:07:13,09-May-2021 22:07:13,33.31818,-119.66478,086.7 050.0,086.7,050.0,22.000,22.158,,12.4539,,12.4455,,12.4497,33.8427,,33.8439,33.8169,,33.8188,33.8314,4.0881,,4.3414,,4.0508,,4.2552,,,178.016,188.5967,190.4039,176.397,197.3863,185.7932,188.0986,0.3965,,2.4316,2.1268,2.1689,,1.7541,,25.6040,,25.5856,,,,,,,,,,,12.4510,12.4426,0.0562,237.905,67.704,67.064,,,,,,,,,,,,
CalCOFI,2105SH,029,,2105_029d,10-May-2021 06:07:14,09-May-2021 22:07:14,33.31817,-119.66479,086.7 050.0,086.7,050.0,23.000,23.165,,12.0650,,12.0453,,12.0552,33.8639,,33.8651,33.8221,,33.8240,33.8446,3.9845,,4.2331,,4.0027,,4.2054,,,173.492,183.8673,185.7647,174.288,192.5003,183.6349,184.6998,0.3478,,2.1458,1.8842,2.1436,,1.7541,,25.6949,,25.6662,,,,,,,,,,,12.0620,12.0424,0.0585,229.273,65.464,65.718,,,,,,,,,,,,
CalCOFI,2105SH,029,,2105_029d,10-May-2021 06:07:15,09-May-2021 22:07:15,33.31816,-119.66480,086.7 050.0,086.7,050.0,24.000,24.172,,11.6648,,11.6509,,11.6579,33.8681,,33.8693,33.8321,,33.8340,33.8517,3.9440,,4.1907,,4.0002,,4.2028,,,171.716,182.0107,183.9435,174.165,190.5823,183.5090,183.7263,0.2548,,1.5683,1.4209,2.1130,,1.7541,,25.7732,,25.7478,,,,,,,,,,,11.6618,11.6479,0.0608,221.838,64.257,65.137,,,,,,,,,,,,
CalCOFI,2105SH,029,,2105_029d,10-May-2021 06:07:18,09-May-2021 22:07:18,33.31816,-119.66482,086.7 050.0,086.7,050.0,25.000,25.180,,11.4038,,11.3964,,11.4001,33.8590,,33.8602,33.8434,,33.8453,33.8528,3.8521,,4.0946,,3.9110,,4.1104,,,167.705,177.8176,179.8303,170.272,186.2504,179.5249,179.6776,0.1929,,1.1610,1.1125,2.0134,,1.7541,,25.8145,,25.8036,,,,,,,,,,,11.4007,11.3933,0.0630,217.930,62.410,63.349,,,,,,,,,,,,
CalCOFI,2105SH,029,,2105_029d,10-May-2021 06:07:22,09-May-2021 22:07:22,33.31814,-119.66484,086.7 050.0,086.7,050.0,26.000,26.187,,11.2144,,11.2066,,11.2105,33.8621,,33.8633,33.8494,,33.8513,33.8573,3.6597,,3.8934,,3.6755,,3.8665,,,159.322,169.0540,171.2339,160.015,177.1967,169.0279,170.1309,0.1545,,0.8991,0.9212,1.9060,,1.7541,,25.8514,,25.8429,,,,,,,,,,,11.2112,11.2034,0.0652,214.439,59.054,59.296,,,,,,,,,,,,
CalCOFI,2105SH,029,,2105_029d,10-May-2021 06:07:23,09-May-2021 22:07:23,33.31812,-119.66484,086.7 050.0,086.7,050.0,27.000,27.194,,11.0720,,11.0638,,11.0679,33.8671,,33.8683,33.8505,,33.8524,33.8604,3.5954,,3.8262,,3.6252,,3.8144,,,156.520,166.1248,168.3605,157.819,174.1705,166.7805,167.5705,0.1522,,0.8832,0.9097,1.8789,,1.7541,,25.8810,,25.8696,,,,,,,,,,,11.0687,11.0605,0.0673,211.645,57.844,58.307,,,,,,,,,,,,
CalCOFI,2105SH,029,,2105_029d,10-May-2021 06:07:24,09-May-2021 22:07:24,33.31812,-119.66484,086.7 050.0,086.7,050.0,28.000,28.202,,10.9370,,10.9335,,10.9353,33.8704,,33.8716,33.8535,,33.8554,33.8635,3.5311,,3.7589,,3.5967,,3.7849,,,153.716,163.1935,165.4851,156.572,171.1422,165.5043,165.4947,0.1457,,0.8381,0.8773,1.8545,,1.7541,,25.9077,,25.8952,,,,,,,,,,,10.9336,10.9301,0.0694,209.119,56.647,57.688,,,,,,,,,,,,
CalCOFI,2105SH,029,,2105_029d,10-May-2021 06:07:25,09-May-2021 22:07:25,33.31812,-119.66486,086.7 050.0,086.7,050.0,29.000,29.209,,10.8334,,10.8274,,10.8304,33.8700,,33.8712,33.8547,,33.8566,33.8639,3.5074,,3.7341,,3.5913,,3.7793,,,152.681,162.1115,164.4238,156.338,170.0244,165.2649,164.8444,0.1259,,0.6994,0.7787,1.8318,,1.7541,,25.9259,,25.9150,,,,,,,,,,,10.8299,10.8239,0.0715,207.408,56.142,57.473,29,10.761,,,165.07,0.944,0.774,20.33,0.179,0.08,1.62,21.63
CalCOFI,2105SH,029,,2105_029d,10-May-2021 06:07:29,09-May-2021 22:07:29,33.31811,-119.66487,086.7 050.0,086.7,050.0,30.000,30.216,,10.7497,,10.7478,,10.7488,33.8686,,33.8698,33.8601,,33.8620,33.8659,3.4913,,3.7173,,3.5585,,3.7453,,,151.978,161.3766,163.7029,154.906,169.2652,163.7994,163.7512,0.1130,,0.6081,0.7144,1.7792,,1.7541,,25.9396,,25.9333,,,,,,,,,,,10.7461,10.7442,0.0737,206.126,55.784,56.853,,,,,,,,,,,,
CalCOFI,2105SH,029,,2105_029d,10-May-2021 06:07:32,09-May-2021 22:07:32,33.31808,-119.66488,086.7 050.0,086.7,050.0,31.000,31.223,,10.7151,,10.7106,,10.7129,33.8691,,33.8703,33.8622,,33.8641,33.8672,3.4320,,3.6553,,3.4842,,3.6683,,,149.397,158.6784,161.0562,151.669,166.4777,160.4866,160.7714,0.1072,,0.5667,0.6855,1.7391,,1.7541,,25.9461,,25.9415,,,,,,,,,,,10.7114,10.7068,0.0759,205.526,54.796,55.621,,,,,,,,,,,,
CalCOFI,2105SH,029,,2105_029d,10-May-2021 06:07:33,09-May-2021 22:07:33,33.31807,-119.66488,086.7 050.0,086.7,050.0,32.000,32.231,,10.6649,,10.6609,,10.6629,33.8712,,33.8724,33.8641,,33.8660,33.8692,3.4101,,3.6324,,3.4669,,3.6504,,,148.443,157.6811,160.0779,150.915,165.4474,159.7150,159.8965,0.1085,,0.5760,0.6920,1.7266,,1.7541,,25.9566,,25.9518,,,,,,,,,,,10.6611,10.6571,0.0779,204.550,54.389,55.287,,,,,,,,,,,,
CalCOFI,2105SH,029,,2105_029d,10-May-2021 06:07:34,09-May-2021 22:07:34,33.31806,-119.66488,086.7 050.0,086.7,050.0,33.000,33.238,,10.6226,,10.6202,,10.6214,33.8726,,33.8738,33.8660,,33.8679,33.8709,3.3959,,3.6175,,3.4551,,3.6382,,,147.821,157.0309,159.4400,150.401,164.7756,159.1890,159.3145,0.1028,,0.5353,0.6636,1.7133,,1.7541,,25.9651,,25.9605,,,,,,,,,,,10.6187,10.6163,0.0800,203.765,54.112,55.052,,,,,,,,,,,,
CalCOFI,2105SH,029,,2105_029d,10-May-2021 06:07:36,09-May-2021 22:07:36,33.31806,-119.66490,086.7 050.0,086.7,050.0,34.000,34.245,,10.5980,,10.5972,,10.5976,33.8731,,33.8743,33.8680,,33.8699,33.8721,3.3639,,3.5841,,3.4256,,3.6076,,,146.431,155.5778,158.0146,149.116,163.2744,157.8739,157.9443,0.0926,,0.4620,0.6128,1.6936,,1.7541,,25.9699,,25.9660,,,,,,,,,,,10.5939,10.5931,0.0821,203.337,53.576,54.555,,,,,,,,,,,,
CalCOFI,2105SH,029,,2105_029d,10-May-2021 06:07:39,09-May-2021 22:07:39,33.31804,-119.66490,086.7 050.0,086.7,050.0,35.000,35.252,,10.5638,,10.5609,,10.5624,33.8743,,33.8755,33.8695,,33.8714,33.8735,3.3075,,3.5251,,3.3425,,3.5216,,,143.973,153.0082,155.4941,145.496,160.6197,154.1692,154.8317,0.0909,,0.4497,0.6043,1.6737,,1.7541,,25.9768,,25.9736,,,,,,,,,,,10.5596,10.5568,0.0841,202.697,52.639,53.190,,,,,,,,,,,,
CalCOFI,2105SH,029,,2105_029d,10-May-2021 06:07:41,09-May-2021 22:07:41,33.31803,-119.66491,086.7 050.0,086.7,050.0,36.000,36.260,,10.4817,,10.4724,,10.4771,33.8762,,33.8774,33.8699,,33.8718,33.8746,3.2404,,3.4549,,3.2905,,3.4677,,,141.050,149.9525,152.4966,143.233,157.4629,151.8533,152.1750,0.0849,,0.4063,0.5744,1.6599,,1.7541,,25.9926,,25.9893,,,,,,,,,,,10.4775,10.4682,0.0861,201.216,51.480,52.264,,,,,,,,,,,,
CalCOFI,2105SH,029,,2105_029d,10-May-2021 06:07:42,09-May-2021 22:07:42,33.31802,-119.66492,086.7 050.0,086.7,050.0,37.000,37.267,,10.3792,,10.3764,,10.3778,33.8809,,33.8821,33.8751,,33.8770,33.8796,3.2217,,3.4354,,3.2736,,3.4502,,,140.235,149.1005,151.6609,142.495,156.5827,151.0980,151.3795,0.0747,,0.3322,0.5236,1.6487,,1.7541,,26.0140,,26.0100,,,,,,,,,,,10.3748,10.3721,0.0881,199.196,51.072,51.890,,,,,,,,,,,,
CalCOFI,2105SH,029,,2105_029d,10-May-2021 06:07:44,09-May-2021 22:07:44,33.31801,-119.66492,086.7 050.0,086.7,050.0,38.000,38.274,,10.3525,,10.3540,,10.3533,33.8806,,33.8818,33.8760,,33.8779,33.8799,3.2081,,3.4211,,3.2532,,3.4291,,,139.639,148.4774,151.0497,141.603,155.9390,150.1851,150.6174,0.0706,,0.3022,0.5032,1.6386,,1.7541,,26.0185,,26.0146,,,,,,,,,,,10.3481,10.3496,0.0902,198.794,50.826,51.541,,,,,,,,,,,,
CalCOFI,2105SH,029,,2105_029d,10-May-2021 06:07:47,09-May-2021 22:07:47,33.31800,-119.66493,086.7 050.0,086.7,050.0,39.000,39.282,,10.3080,,10.3033,,10.3057,33.8815,,33.8827,33.8774,,33.8793,33.8810,3.1514,,3.3618,,3.1879,,3.3614,,,137.173,145.8995,148.5209,138.758,153.2757,147.2735,147.8972,0.0696,,0.2949,0.4982,1.6156,,1.7541,,26.0268,,26.0244,,,,,,,,,,,10.3034,10.2988,0.0922,198.020,49.881,50.451,,,,,,,,,,,,
CalCOFI,2105SH,029,,2105_029d,10-May-2021 06:07:50,09-May-2021 22:07:50,33.31798,-119.66493,086.7 050.0,086.7,050.0,40.000,40.289,,10.1865,,10.1766,,10.1816,33.8855,,33.8867,33.8789,,33.8808,33.8838,2.9939,,3.1971,,3.0197,,3.1872,,,130.313,138.7280,141.4863,131.437,145.8669,139.7813,140.6338,0.0590,,0.2170,0.4454,1.5877,,1.7541,,26.0508,,26.0473,,,,,,,,,,,10.1819,10.1720,0.0942,195.758,47.265,47.659,,,,,,,,,,,,
CalCOFI,2105SH,029,,2105_029d,10-May-2021 06:07:51,09-May-2021 22:07:51,33.31797,-119.66492,086.7 050.0,086.7,050.0,41.000,41.296,,10.0505,,10.0437,,10.0471,33.8956,,33.8968,33.8892,,33.8911,33.8940,2.9555,,3.1570,,3.0124,,3.1796,,,128.639,136.9780,139.7696,131.114,144.0590,139.4507,139.6102,0.0520,,0.1653,0.4105,1.5772,,1.7541,,26.0818,,26.0780,,,,,,,,,,,10.0458,10.0390,0.0961,192.827,46.524,47.410,,,,,,,,,,,,
CalCOFI,2105SH,029,,2105_029d,10-May-2021 06:07:52,09-May-2021 22:07:52,33.31796,-119.66494,086.7 050.0,086.7,050.0,42.000,42.304,,9.9841,,9.9832,,9.9837,33.9006,,33.9018,33.8957,,33.8976,33.8997,2.9513,,3.1526,,3.0086,,3.1757,,,128.451,136.7815,139.5768,130.945,143.8559,139.2777,139.4273,0.0483,,0.1379,0.3921,1.5651,,1.7541,,26.0970,,26.0933,,,,,,,,,,,9.9793,9.9784,0.0981,191.399,46.392,47.290,,,,,,,,,,,,
CalCOFI,2105SH,029,,2105_029d,10-May-2021 06:07:54,09-May-2021 22:07:54,33.31796,-119.66494,086.7 050.0,086.7,050.0,43.000,43.311,,9.9813,,9.9804,,9.9809,33.9001,,33.9013,33.8963,,33.8982,33.8998,2.9467,,3.1478,,3.0063,,3.1733,,,128.253,136.5745,139.3738,130.846,143.6421,139.1764,139.2751,0.0472,,0.1297,0.3866,1.5523,,1.7541,,26.0971,,26.0943,,,,,,,,,,,9.9764,9.9755,0.1000,191.410,46.317,47.251,,,,,,,,,,,,
CalCOFI,2105SH,029,,2105_029d,10-May-2021 06:07:56,09-May-2021 22:07:56,33.31795,-119.66495,086.7 050.0,086.7,050.0,44.000,44.318,,9.9774,,9.9772,,9.9773,33.9008,,33.9020,33.8980,,33.8999,33.9010,2.9397,,3.1404,,2.9966,,3.1633,,,127.949,136.2567,139.0621,130.426,143.3138,138.7466,138.9044,0.0475,,0.1319,0.3881,1.5342,,1.7541,,26.0983,,26.0961,,,,,,,,,,,9.9724,9.9721,0.1019,191.321,46.204,47.097,,,,,,,,,,,,
CalCOFI,2105SH,029,,2105_029d,10-May-2021 06:08:01,09-May-2021 22:08:01,33.31792,-119.66496,086.7 050.0,086.7,050.0,45.000,45.326,,9.9718,,9.9710,,9.9714,33.9018,,33.9030,33.9003,,33.9022,33.9026,2.9248,,3.1249,,2.9752,,3.1411,,,127.300,135.5782,138.3965,129.492,142.6129,137.7907,138.0936,0.0471,,0.1290,0.3861,1.5050,,1.7541,,26.1001,,26.0990,,,,,,,,,,,9.9667,9.9658,0.1039,191.171,45.964,46.754,,,,,,,,,,,,
CalCOFI,2105SH,029,,2105_029d,10-May-2021 06:08:02,09-May-2021 22:08:02,33.31791,-119.66496,086.7 050.0,086.7,050.0,46.000,46.333,,9.9682,,9.9687,,9.9685,33.9021,,33.9033,33.9007,,33.9026,33.9030,2.9156,,3.1152,,2.9687,,3.1344,,,126.897,135.1569,137.9833,129.210,142.1776,137.5022,137.7428,0.0480,,0.1357,0.3906,1.5011,,1.7541,,26.1009,,26.0997,,,,,,,,,,,9.9630,9.9634,0.1058,191.117,45.815,46.650,,,,,,,,,,,,
CalCOFI,2105SH,029,,2105_029d,10-May-2021 06:08:03,09-May-2021 22:08:03,33.31790,-119.66496,086.7 050.0,086.7,050.0,47.000,47.340,,9.9679,,9.9678,,9.9679,33.9021,,33.9033,33.9009,,33.9028,33.9031,2.9093,,3.1086,,2.9527,,3.1178,,,126.623,134.8705,137.7023,128.515,141.8817,136.7909,137.2466,0.0493,,0.1453,0.3971,1.4974,,1.7541,,26.1010,,26.1001,,,,,,,,,,,9.9626,9.9624,0.1078,191.128,45.716,46.399,,,,,,,,,,,,
CalCOFI,2105SH,029,,2105_029d,10-May-2021 06:08:04,09-May-2021 22:08:04,33.31790,-119.66496,086.7 050.0,086.7,050.0,48.000,48.348,,9.9631,,9.9650,,9.9641,33.9027,,33.9039,33.9014,,33.9033,33.9036,2.8779,,3.0758,,2.9269,,3.0911,,,125.258,133.4435,136.3025,127.392,140.4075,135.6416,135.9721,0.0467,,0.1260,0.3841,1.4943,,1.7541,,26.1023,,26.1009,,,,,,,,,,,9.9577,9.9595,0.1097,191.029,45.219,45.990,48,9.961,,3.120,135.79,0.237,0.530,22.98,0.140,0.00,1.81,24.99
CalCOFI,2105SH,029,,2105_029d,10-May-2021 06:08:06,09-May-2021 22:08:06,33.31790,-119.66498,086.7 050.0,086.7,050.0,49.000,49.355,,9.9264,,9.9341,,9.9303,33.9064,,33.9076,33.9032,,33.9051,33.9064,2.8561,,3.0530,,2.9279,,3.0921,,,124.308,132.4504,135.3284,127.433,139.3815,135.6836,135.5060,0.0467,,0.1260,0.3841,1.4910,,1.7541,,26.1113,,26.1076,,,,,,,,,,,9.9208,9.9285,0.1116,190.187,44.841,45.975,,,,,,,,,,,,
CalCOFI,2105SH,029,,2105_029d,10-May-2021 06:08:08,09-May-2021 22:08:08,33.31790,-119.66498,086.7 050.0,086.7,050.0,50.000,50.363,,9.8619,,9.8985,,9.8802,33.9194,,33.9206,33.9083,,33.9102,33.9154,2.9090,,3.1083,,2.9881,,3.1545,,,126.609,134.8558,137.6879,130.052,141.8666,138.3638,138.0259,0.0444,,0.1089,0.3727,1.4866,,1.7541,,26.1324,,26.1176,,,,,,,,,,,9.8563,9.8929,0.1135,188.206,45.613,46.887,,,,,,,,,,,,
